#timestamp,LO_Frequency,Hit,StdDev 
1548907215.2,286047001.2,N
1548907235.9,286047002.4,N
1548907255.7,286046999.9,N
1548907275.6,286047000.5,N
1548907295.4,286047000.3,N
1548907315.3,286046998.5,N
1548907335.1,286046998.1,N
1548907336.0,286046998.1,N
1548907355.8,286046996.5,N
1548907375.7,286046997.7,N
1548907395.5,286046999.0,N
1548907415.4,286046997.2,N
1548907435.2,286046998.9,N
1548907455.0,286046998.6,N
1548907455.9,286046998.6,N
1548907475.8,286046999.1,N
1548907495.6,286046997.8,N
1548907515.4,286046998.0,N
1548907535.3,286046996.2,N
1548907555.1,286046995.3,Y
1548907575.9,286046997.3,P
1548907595.7,286046996.8,P
1548907615.5,286046997.6,N
1548907635.4,286046995.0,Y
1548907655.2,286047000.8,P
1548907675.1,286047000.3,N
1548907676.0,286047000.3,N
1548907695.8,286047002.7,N
1548907715.6,286046998.4,N
1548907735.5,286046998.5,N
1548907755.3,286047000.2,N
1548907775.2,286047001.1,N
1548907795.9,286047000.4,N
1548907815.7,286046998.8,N
1548907835.6,286046998.9,N
1548907855.4,286047000.9,N
1548907875.3,286047002.1,N
1548907895.1,286047002.7,N
1548907896.0,286047002.7,N
1548907915.8,286047000.6,N
1548907935.7,286047000.1,N
1548907955.5,286047002.7,N
1548907975.3,286047000.3,N
1548907995.2,286047000.8,N
1548908015.0,286046998.1,N
1548908015.9,286046998.1,N
1548908035.8,286047000.5,N
1548908055.6,286047001.0,N
1548908075.4,286047000.7,N
1548908095.3,286047000.7,N
1548908115.1,286047000.9,N
1548908135.9,286047000.9,N
1548908155.7,286047000.5,N
1548908175.5,286047000.2,N
1548908195.4,286047004.2,Y
1548908215.2,286047002.6,P
1548908235.0,286047000.2,N
1548908235.9,286047000.2,N
1548908255.8,286047002.3,N
1548908275.6,286047000.6,N
1548908295.5,286046998.8,N
1548908315.3,286046999.2,N
1548908335.1,286046999.5,N
1548908355.9,286046999.5,N
1548908375.7,286047001.2,N
1548908395.5,286047000.6,N
1548908415.4,286047001.1,N
1548908435.2,286047002.4,N
1548908455.1,286047001.9,N
1548908456.0,286047001.9,N
1548908475.8,286047002.0,N
1548908495.6,286047004.4,Y
1548908515.5,286047001.6,P
1548908535.3,286047001.5,P
1548908555.2,286047002.2,P
1548908575.9,286047002.6,Y
1548908595.7,286046998.6,P
1548908615.6,286046998.2,N
1548908635.4,286046999.1,N
1548908655.2,286046996.7,N
1548908675.1,286046997.8,N
1548908676.0,286046997.8,N
1548908695.8,286046995.7,Y
1548908715.7,286046998.0,P
1548908735.5,286046996.7,P
1548908755.3,286046997.1,P
1548908775.2,286046999.4,N
1548908795.0,286046998.6,N
1548908795.9,286046998.6,N
1548908815.8,286046999.2,N
1548908835.6,286046997.4,N
1548908855.4,286046997.5,N
1548908875.3,286046994.9,Y
1548908895.1,286046995.3,P
1548908915.8,286046998.0,N
1548908935.0,286046997.9,N
1548908935.9,286046997.9,N
1548908955.8,286046995.1,Y
1548908975.6,286046996.5,P
1548908995.4,286046999.1,N
1548909015.3,286047000.5,N
1548909035.1,286047000.9,N
1548909055.8,286046999.9,N
1548909075.7,286047002.8,N
1548909095.5,286047002.1,N
1548909115.4,286047000.0,N
1548909135.2,286047001.2,N
1548909155.0,286046998.5,N
1548909155.9,286046998.5,N
1548909175.8,286046998.3,N
1548909195.6,286047002.3,N
1548909215.4,286047002.7,N
1548909235.3,286047002.4,N
1548909255.1,286047002.5,N
1548909275.9,286047002.3,N
1548909295.7,286047002.0,N
1548909315.5,286047002.5,N
1548909335.4,286047002.5,N
1548909355.2,286047003.3,N
1548909375.0,286047003.0,N
1548909375.9,286047003.0,N
1548909395.8,286047005.8,N
1548909415.6,286047005.9,N
1548909435.5,286047002.5,N
1548909455.3,286047001.0,N
1548909475.1,286046998.3,N
1548909495.9,286047000.4,N
1548909515.7,286047000.9,N
1548909535.5,286047000.3,N
1548909555.4,286047000.2,N
1548909575.2,286047002.2,N
1548909595.1,286047003.9,N
1548909596.0,286047003.9,N
1548909615.8,286047001.8,N
1548909635.6,286047002.2,N
1548909655.5,286047001.8,N
1548909675.3,286047001.6,N
1548909695.2,286047002.8,N
1548909715.9,286046998.1,N
1548909735.7,286046998.5,N
1548909755.6,286046998.9,N
1548909775.4,286046999.3,N
1548909795.2,286046999.3,N
1548909815.1,286046998.6,N
1548909816.0,286046998.6,N
1548909835.8,286046999.9,N
1548909855.7,286047000.9,N
1548909875.5,286047000.1,N
1548909895.3,286047004.0,N
1548909915.2,286047004.2,N
1548909935.0,286047006.0,N
1548909935.9,286047006.0,N
1548909955.8,286047003.2,N
1548909975.6,286047003.2,N
1548909995.4,286047003.6,N
1548910015.3,286047001.6,N
1548910035.1,286047000.1,N
1548910055.8,286047000.7,N
1548910075.7,286046996.7,N
1548910095.5,286046999.2,N
1548910115.4,286046998.9,N
1548910135.2,286046996.5,N
1548910155.0,286046994.9,N
1548910155.9,286046994.9,N
1548910175.8,286046997.1,N
1548910195.6,286046997.4,N
1548910215.4,286046995.1,N
1548910235.3,286046996.1,N
1548910255.1,286046993.6,N
1548910275.9,286046992.2,N
1548910295.7,286046992.3,N
1548910315.5,286046992.3,N
1548910335.4,286046993.0,N
1548910355.2,286046990.5,N
1548910375.0,286046992.7,N
1548910376.0,286046992.7,N
1548910395.8,286046992.1,N
1548910415.6,286046994.5,N
1548910435.5,286046994.7,N
1548910455.3,286046994.2,N
1548910475.1,286046996.2,N
1548910495.9,286046995.8,N
1548910515.7,286046996.2,N
1548910535.6,286046997.8,N
1548910555.4,286046995.0,N
1548910575.2,286046997.9,N
1548910595.1,286046995.8,N
1548910596.0,286046995.8,N
1548910615.8,286046993.7,N
1548910635.6,286046996.3,N
1548910655.5,286046994.6,N
1548910675.3,286046993.7,Y
1548910695.2,286047001.2,P
1548910715.9,286047001.2,N
1548910735.7,286047000.5,N
1548910755.6,286047002.0,N
1548910775.4,286047000.2,N
1548910795.2,286047000.0,N
